Regional Weather Roundup
Issued by NWS

Home | Current Version | Previous Version | Graphics & Text | Print | Product List | Glossary On
Versions: 1 2 3 4 5 6 7 8 9 10 11 12 13 14 15 16 17 18 19 20 21 22 23 24 25 26 27 28 29 30 31 32 33 34 35 36 37 38 39 40 41 42 43 44 45 46 47 48 49 50
000
ASUS43 KIND 201709
RWRIN

WEATHER ROUNDUP FOR INDIANA
NATIONAL WEATHER SERVICE INDIANAPOLIS IN
100 PM EDT THU JUL 20 2017

NOTE: "FAIR" INDICATES FEW OR NO CLOUDS BELOW 12,000 FEET WITH NO
SIGNIFICANT WEATHER AND/OR OBSTRUCTIONS TO VISIBILITY.

* - STATION DOES NOT REPORT WEATHER SUCH AS PRECIPITATION OR FOG.

+ - STATION NOT QUALITY CONTROLLED BY THE NATIONAL WEATHER SERVICE.
    USE DATA WITH CAUTION...ESPECIALLY DEWPOINT AND RELATIVE
    HUMIDITY OBSERVATIONS.

INZ001>003-010>013-019-020-201800-
NORTHWEST INDIANA

CITY           SKY/WX    TMP DP  RH WIND       PRES   REMARKS
GARY /AIRPORT/ PTSUNNY   79  70  73 S10G24    29.97F
KNOX *+        CLOUDY    75  63  64 SW13      30.00S
LA PORTE +     CLOUDY    78  71  81 SW14G23   30.00S
MICHIGAN CITY+ CLOUDY    79  72  78 SW12G21   29.98S
MONTICELLO +   CLOUDY    75  73  94 S7        30.03F
RENSSELAER +   MOSUNNY   81  72  74 S9        30.02F
VALPARAISO     CLOUDY    80  72  76 SW14G22   29.99F

$$

LMZ046-743>745-201800-
SOUTHERN LAKE MICHIGAN

STATION/POSITION TIME  TEMP    WIND        PRES    WAVE
                       AIR SEA DIR/SP/G            HT
                 (UTC) (F)     (DEG/KT/KT) (MB)    (FT)
BURNS HARBOR     1640   77     190/ 19/ 23 1014.9F
MICHIGAN CITY    1640   76     190/ 16/ 19   N/A
5NW MICH CITY    1700   76 74  210/ 14/ 17   N/A     3

$$

INZ004-005-014>016-021>024-201800-
NORTH CENTRAL INDIANA

CITY           SKY/WX    TMP DP  RH WIND       PRES   REMARKS
ELKHART        PTSUNNY   75  70  83 W12G18    30.00R
LOGANSPORT +   CLOUDY    75  72  88 SW14      30.03F
PERU/GRISSOM   PTSUNNY   77  76  98 SW12      30.02F
ROCHESTER +    CLOUDY    79  72  78 SW14G22   30.01F
SOUTH BEND     CLOUDY    77  72  84 SW16      29.99F
WARSAW +       CLOUDY    73  70  88 W10       30.01R

$$

INZ006>009-017-018-025>027-201800-
NORTHEAST INDIANA

CITY           SKY/WX    TMP DP  RH WIND       PRES   REMARKS
ANGOLA *+      SUNNY     81  75  83 W8        30.02R
AUBURN +       CLOUDY    77  68  73 SW5       30.00R
FORT WAYNE     CLOUDY    73  69  87 SW8       30.00F
HUNTINGTON +   LGT RAIN  71  69  96 SW15G24   29.97F
KENDALLVILLE + CLOUDY   N/A N/A N/A SW8G16    30.01R

$$

INZ028-029-035-036-043>045-051>053-201800-
WEST CENTRAL INDIANA

CITY           SKY/WX    TMP DP  RH WIND       PRES   REMARKS
GREENCASTLE +  CLOUDY    79  73  83 CALM      30.10R
LAFAYETTE      PTSUNNY   78  74  87 VRB3      30.03F
TERRE HAUTE    PTSUNNY   86  73  65 CALM      30.08F

$$

INZ030>032-037>040-046>048-054>057-064-065-201800-
CENTRAL INDIANA

CITY           SKY/WX    TMP DP  RH WIND       PRES   REMARKS
CP ATTERBURY + PTSUNNY   82  72  69 NW12G21   30.11F
FRANKFORT +    CLOUDY    81  76  84 CALM      30.08F
GREENWOOD *+   CLOUDY    77  70  79 NE3       30.10F
INDIANAPOLIS   CLOUDY    78  73  84 VRB5      30.07F
-EAGLE CREEK   CLOUDY    77  73  87 S9        30.06F
KOKOMO +       CLOUDY    76  72  87 S10       30.05F
MARION +       CLOUDY    72  70  94 SE3       30.05F
MT COMFORT *+  CLOUDY    72  70  94 W9        30.12S
SHELBYVILLE    LGT RAIN  79  71  76 W9        30.10F
ZIONSVILLE +   CLOUDY    76  74  92 W9        30.08S

$$

INZ033-034-041-042-049-050-058-059-201800-
EAST CENTRAL INDIANA

CITY           SKY/WX    TMP DP  RH WIND       PRES   REMARKS
MUNCIE         LGT RAIN  75  72  90 NW5       30.08F
RICHMOND +     HVY RAIN  72  70  94 W18G30    30.15R

$$

INZ060-061-067>069-081>083-085>088-201800-
SOUTHWEST INDIANA

CITY           SKY/WX    TMP DP  RH WIND       PRES   REMARKS
EVANSVILLE     MOSUNNY   92  71  50 W9        30.11S HX  98
HUNTINGBURG *+ CLOUDY    88  75  65 NW6       30.11F HX  97

$$

INZ062-063-066-070>080-084-089>092-201800-
SOUTH CENTRAL AND SOUTHEAST INDIANA

CITY           SKY/WX    TMP DP  RH WIND       PRES   REMARKS
BEDFORD +      PTSUNNY   86  72  62 W3        30.11F
BLOOMINGTON    CLOUDY    86  72  62 SW6       30.09F
MADISON *+     PTSUNNY   86  72  62 W5        30.14F
NORTH VERNON + CLOUDY    82  73  74 W6        30.13S
SEYMOUR +      CLOUDY    88  75  66 W5        30.11S HX  97

$$





USA.gov is the U.S. government's official web portal to all federal, state and local government web resources and services.